Location: Newark
(35.2672°N, 80.7344°W)
Time: 01:56:47
(UTC+00:00)

Transit 2A Rocket - Pass Details

Date: 04 February 2020
Orbit: 591 x 912 km, 66.7° (Epoch: 21 February)

Event Time Altitude Azimuth Distance (km) Brightness Sun altitude
Rises 15:50:24 0° 351° (N) 3,070 7.6 32.6°
Reaches altitude 10° 15:53:35 10° 14° (NNE) 2,216 7.1 33.0°
Maximum altitude 15:56:40 16° 51° (NE) 1,897 7.1 33.3°
Drops below altitude 10° 15:59:54 10° 89° (E) 2,342 8.0 33.6°
Sets 16:03:23 0° 110° (ESE) 3,339 8.9 33.9°
